This is the latest recevied weather packets stored in our database for station/object N2VUZ-1. If no packets are shown the sender has not sent any weather packets the latest 10 day(s).
| Time | Temp. | Humidity | Pressure | Rain* | Wind** | Luminosity | Snow |
|---|---|---|---|---|---|---|---|
| 1788037460 | 25.56° C | 58% | 1021.9 hPa | 0 mm | - | - | - |
| 1788037160 | 25.56° C | 57% | 1021.9 hPa | 0 mm | - | - | - |
| 1788036861 | 25.56° C | 57% | 1022 hPa | 0 mm | - | - | - |
| 1788036560 | 25.56° C | 58% | 1022 hPa | 0 mm | - | - | - |
| 1788036260 | 26.11° C | 57% | 1022 hPa | 0 mm | - | - | - |
| 1788035960 | 26.11° C | 57% | 1022.2 hPa | 0 mm | - | - | - |
| 1788035660 | 26.11° C | 56% | 1022.2 hPa | 0 mm | - | - | - |
| 1788035360 | 26.67° C | 57% | 1022.1 hPa | 0 mm | - | - | - |
| 1788035061 | 26.11° C | 56% | 1022.1 hPa | 0 mm | - | - | - |
| 1788034760 | 26.11° C | 57% | 1022.2 hPa | 0 mm | - | - | - |
| 1788034460 | 26.67° C | 55% | 1022.1 hPa | 0 mm | - | - | - |
| 1788034161 | 26.67° C | 57% | 1022.3 hPa | 0 mm | - | - | - |
| 1788033860 | 26.11° C | 58% | 1022.2 hPa | 0 mm | - | - | - |
| 1788033560 | 26.67° C | 55% | 1022.4 hPa | 0 mm | - | - | - |
| 1788033260 | 26.67° C | 54% | 1022.4 hPa | 0 mm | - | - | - |
| 1788032960 | 26.11° C | 54% | 1022.6 hPa | 0 mm | - | - | - |
| 1788032660 | 26.67° C | 53% | 1022.5 hPa | 0 mm | - | - | - |
| 1788032360 | 26.67° C | 56% | 1022.4 hPa | 0 mm | - | - | - |
| 1788032060 | 26.67° C | 57% | 1022.5 hPa | 0 mm | - | - | - |
| 1788031760 | 26.67° C | 56% | 1022.5 hPa | 0 mm | - | - | - |
| 1788031460 | 27.22° C | 55% | 1022.6 hPa | 0 mm | - | - | - |
| 1788031160 | 26.67° C | 56% | 1022.7 hPa | 0 mm | - | - | - |
| 1788030860 | 26.67° C | 56% | 1022.6 hPa | 0 mm | - | - | - |
| 1788030560 | 26.67° C | 54% | 1022.9 hPa | 0 mm | - | - | - |
| 1788030260 | 26.67° C | 54% | 1022.8 hPa | 0 mm | - | - | - |
* Rain latest hour (hover to see other rain measurements)
** Current wind speed in m/s (hover to see current wind gust speed)